Climatologie pour Saint-Brevin les Pins
Jour • Résumé pour février 27, 2017 Système :  Métrique    Anglais   Mixte
« - 1 jour
+ 1 jour »
Jour Semaine Mois Année Personnalisé
  Maximum : Minimum : Moyenne :
Température sous abri : 11.7 °C 5.7 °C 9.1 °C
Point de rosée : 10.1 °C 3.2 °C 7.4 °C
Humidité : 97 % 75 % 89 %
Vitesse du vent : 54.7 km/h 3.2 km/h 16.2 km/h
Rafale : 59.5 km/h - -
Direction :- - WSW
Pression : 1010.7 hPa 997.5 hPa -
Précipitations : 21.1 mm    
Historical Graphs
 
 
Tableau de données pour février 27, 2017
Heure Tempé Pt rosée Pression Vent Vitesse Rafale Humidité Taux pluie (/hr) Soleil
00:00 10.2 °C 8.4 °C 1010.7 hPa SSW 11.3 km/h 20.9 km/h 89 % 0.0 mm 0 W/m2
00:10 10.2 °C 8.4 °C 1010.7 hPa SW 9.7 km/h 20.9 km/h 89 % 0.0 mm 0 W/m2
00:15 10.2 °C 8.4 °C 1010.7 hPa SSW 8.0 km/h 19.3 km/h 89 % 0.0 mm 0 W/m2
00:20 10.2 °C 8.4 °C 1010.4 hPa SSW 6.4 km/h 19.3 km/h 89 % 0.0 mm 0 W/m2
00:25 10.2 °C 8.3 °C 1010.4 hPa South 6.4 km/h 20.9 km/h 88 % 0.0 mm 0 W/m2
00:30 10.3 °C 8.4 °C 1010.4 hPa SW 16.1 km/h 24.1 km/h 88 % 0.0 mm 0 W/m2
00:35 10.3 °C 8.4 °C 1010.4 hPa SSW 9.7 km/h 29.0 km/h 88 % 0.0 mm 0 W/m2
00:40 10.3 °C 8.4 °C 1010.4 hPa South 14.5 km/h 29.0 km/h 88 % 0.0 mm 0 W/m2
00:45 10.4 °C 8.5 °C 1010.4 hPa SW 11.3 km/h 27.4 km/h 88 % 0.0 mm 0 W/m2
00:50 10.5 °C 8.3 °C 1010.4 hPa SSW 12.9 km/h 24.1 km/h 86 % 0.0 mm 0 W/m2
00:55 10.4 °C 8.2 °C 1010.0 hPa WSW 9.7 km/h 24.1 km/h 86 % 0.0 mm 0 W/m2
01:00 10.4 °C 8.2 °C 1010.0 hPa SW 8.0 km/h 24.1 km/h 86 % 0.0 mm 0 W/m2
01:05 10.4 °C 8.2 °C 1010.0 hPa WNW 8.0 km/h 22.5 km/h 86 % 0.0 mm 0 W/m2
01:10 10.4 °C 8.1 °C 1009.7 hPa SW 6.4 km/h 22.5 km/h 86 % 0.0 mm 0 W/m2
01:15 10.4 °C 8.1 °C 1009.7 hPa SSW 9.7 km/h 20.9 km/h 86 % 0.0 mm 0 W/m2
01:20 10.4 °C 8.2 °C 1009.7 hPa SW 17.7 km/h 22.5 km/h 86 % 0.0 mm 0 W/m2
01:25 10.5 °C 8.4 °C 1009.7 hPa WSW 12.9 km/h 22.5 km/h 87 % 0.0 mm 0 W/m2
01:30 10.4 °C 8.4 °C 1009.7 hPa SW 9.7 km/h 25.7 km/h 87 % 0.0 mm 0 W/m2
01:35 10.4 °C 8.4 °C 1009.4 hPa South 6.4 km/h 25.7 km/h 87 % 0.0 mm 0 W/m2
01:40 10.4 °C 8.3 °C 1009.4 hPa SSW 11.3 km/h 24.1 km/h 87 % 0.0 mm 0 W/m2
01:45 10.4 °C 8.1 °C 1009.4 hPa WSW 9.7 km/h 22.5 km/h 86 % 0.0 mm 0 W/m2
01:50 10.4 °C 8.1 °C 1009.4 hPa WSW 11.3 km/h 24.1 km/h 86 % 0.0 mm 0 W/m2
01:55 10.4 °C 8.1 °C 1009.0 hPa SW 8.0 km/h 24.1 km/h 86 % 0.0 mm 0 W/m2
02:00 10.3 °C 8.3 °C 1009.0 hPa South 12.9 km/h 25.7 km/h 87 % 0.0 mm 0 W/m2
02:05 10.3 °C 8.2 °C 1009.0 hPa West 9.7 km/h 27.4 km/h 87 % 0.0 mm 0 W/m2
02:10 10.3 °C 8.2 °C 1008.7 hPa South 6.4 km/h 27.4 km/h 87 % 0.0 mm 0 W/m2
02:15 10.2 °C 8.3 °C 1008.7 hPa SSW 3.2 km/h 22.5 km/h 88 % 0.0 mm 0 W/m2
02:20 10.2 °C 8.3 °C 1008.7 hPa SW 14.5 km/h 20.9 km/h 88 % 0.0 mm 0 W/m2
02:25 10.2 °C 8.3 °C 1008.7 hPa SW 9.7 km/h 24.1 km/h 88 % 0.0 mm 0 W/m2
02:30 10.2 °C 8.3 °C 1008.7 hPa SSW 17.7 km/h 24.1 km/h 88 % 0.0 mm 0 W/m2
02:35 10.2 °C 8.3 °C 1008.4 hPa SSW 11.3 km/h 24.1 km/h 88 % 0.0 mm 0 W/m2
02:40 10.2 °C 8.3 °C 1008.4 hPa SW 14.5 km/h 30.6 km/h 88 % 0.0 mm 0 W/m2
02:45 10.3 °C 8.4 °C 1008.4 hPa WSW 8.0 km/h 30.6 km/h 88 % 0.0 mm 0 W/m2
02:50 10.3 °C 8.4 °C 1008.4 hPa SW 14.5 km/h 20.9 km/h 88 % 0.0 mm 0 W/m2
02:55 10.3 °C 8.4 °C 1008.4 hPa West 8.0 km/h 20.9 km/h 88 % 0.0 mm 0 W/m2
03:00 10.2 °C 8.3 °C 1008.0 hPa SW 3.2 km/h 20.9 km/h 88 % 0.0 mm 0 W/m2
03:05 10.2 °C 8.3 °C 1008.0 hPa SW 3.2 km/h 17.7 km/h 88 % 0.0 mm 0 W/m2
03:10 10.2 °C 8.3 °C 1008.0 hPa SW 14.5 km/h 20.9 km/h 88 % 0.0 mm 0 W/m2
03:15 10.3 °C 8.4 °C 1007.7 hPa West 11.3 km/h 24.1 km/h 88 % 0.0 mm 0 W/m2
03:20 10.3 °C 8.4 °C 1007.7 hPa South 14.5 km/h 25.7 km/h 88 % 0.0 mm 0 W/m2
03:25 10.4 °C 8.5 °C 1007.7 hPa WSW 22.5 km/h 32.2 km/h 88 % 0.0 mm 0 W/m2
03:30 10.4 °C 8.5 °C 1007.3 hPa SSW 6.4 km/h 32.2 km/h 88 % 0.0 mm 0 W/m2
03:35 10.5 °C 8.4 °C 1007.0 hPa SSW 17.7 km/h 29.0 km/h 87 % 0.0 mm 0 W/m2
03:40 10.6 °C 8.5 °C 1007.0 hPa SSW 17.7 km/h 32.2 km/h 87 % 0.0 mm 0 W/m2
03:45 10.6 °C 8.5 °C 1006.7 hPa SSW 12.9 km/h 33.8 km/h 87 % 0.0 mm 0 W/m2
03:50 10.6 °C 8.4 °C 1006.3 hPa SW 16.1 km/h 37.0 km/h 86 % 0.0 mm 0 W/m2
03:55 10.6 °C 8.5 °C 1006.7 hPa South 11.3 km/h 37.0 km/h 87 % 0.0 mm 0 W/m2
04:00 10.6 °C 8.5 °C 1006.7 hPa SW 14.5 km/h 32.2 km/h 87 % 0.0 mm 0 W/m2
04:05 10.6 °C 8.4 °C 1006.3 hPa WSW 11.3 km/h 29.0 km/h 86 % 0.0 mm 0 W/m2
04:10 10.7 °C 8.4 °C 1006.3 hPa SSW 9.7 km/h 29.0 km/h 86 % 0.0 mm 0 W/m2
04:20 10.7 °C 8.5 °C 1006.0 hPa WSW 20.9 km/h 33.8 km/h 86 % 0.0 mm 0 W/m2
04:25 10.7 °C 8.6 °C 1006.0 hPa SW 6.4 km/h 30.6 km/h 87 % 0.0 mm 0 W/m2
04:30 10.7 °C 8.6 °C 1006.0 hPa SSW 9.7 km/h 30.6 km/h 87 % 0.0 mm 0 W/m2
04:40 10.7 °C 8.6 °C 1005.6 hPa SSW 14.5 km/h 33.8 km/h 87 % 0.0 mm 0 W/m2
04:45 10.7 °C 8.8 °C 1005.6 hPa SSW 3.2 km/h 33.8 km/h 88 % 0.0 mm 0 W/m2
04:50 10.7 °C 8.8 °C 1005.6 hPa SW 14.5 km/h 25.7 km/h 88 % 0.0 mm 0 W/m2
04:55 10.7 °C 8.8 °C 1005.6 hPa WSW 11.3 km/h 22.5 km/h 88 % 0.0 mm 0 W/m2
05:00 10.7 °C 8.8 °C 1005.6 hPa SW 8.0 km/h 24.1 km/h 88 % 0.0 mm 0 W/m2
05:05 10.7 °C 8.8 °C 1005.3 hPa SW 11.3 km/h 24.1 km/h 88 % 0.0 mm 0 W/m2
05:10 10.7 °C 8.8 °C 1005.3 hPa WSW 9.7 km/h 22.5 km/h 88 % 0.0 mm 0 W/m2
05:15 10.7 °C 8.9 °C 1005.3 hPa WSW 17.7 km/h 27.4 km/h 89 % 0.0 mm 0 W/m2
05:20 10.7 °C 8.9 °C 1005.0 hPa SSW 22.5 km/h 29.0 km/h 89 % 0.0 mm 0 W/m2
05:25 10.7 °C 8.9 °C 1004.6 hPa South 11.3 km/h 33.8 km/h 89 % 0.0 mm 0 W/m2
05:30 10.7 °C 8.9 °C 1004.6 hPa SSE 25.7 km/h 33.8 km/h 89 % 0.0 mm 0 W/m2
05:35 10.7 °C 9.0 °C 1004.6 hPa SW 29.0 km/h 32.2 km/h 89 % 0.0 mm 0 W/m2
05:40 10.8 °C 9.0 °C 1004.6 hPa SSE 11.3 km/h 33.8 km/h 89 % 0.0 mm 0 W/m2
05:45 10.8 °C 9.1 °C 1004.3 hPa SSW 19.3 km/h 43.4 km/h 89 % 0.0 mm 0 W/m2
05:50 10.8 °C 9.3 °C 1004.3 hPa SSW 19.3 km/h 43.4 km/h 90 % 0.0 mm 0 W/m2
05:55 10.8 °C 9.3 °C 1004.3 hPa SSW 11.3 km/h 35.4 km/h 90 % 0.0 mm 0 W/m2
06:00 10.8 °C 9.3 °C 1004.3 hPa SSW 9.7 km/h 33.8 km/h 90 % 0.0 mm 0 W/m2
06:05 10.7 °C 9.3 °C 1003.9 hPa South 12.9 km/h 32.2 km/h 91 % 0.0 mm 0 W/m2
06:10 10.5 °C 9.3 °C 1003.9 hPa SW 16.1 km/h 32.2 km/h 92 % 0.3 mm 0 W/m2
06:15 10.4 °C 9.2 °C 1003.9 hPa SSW 14.5 km/h 35.4 km/h 92 % 0.5 mm 0 W/m2
06:20 10.3 °C 9.3 °C 1003.9 hPa SW 17.7 km/h 35.4 km/h 93 % 0.5 mm 0 W/m2
06:25 10.3 °C 9.2 °C 1003.9 hPa SW 8.0 km/h 32.2 km/h 93 % 1.0 mm 0 W/m2
06:30 10.2 °C 9.3 °C 1003.6 hPa SSW 14.5 km/h 33.8 km/h 94 % 1.3 mm 0 W/m2
06:35 10.2 °C 9.3 °C 1003.6 hPa SSW 8.0 km/h 33.8 km/h 94 % 1.5 mm 0 W/m2
06:40 10.1 °C 9.3 °C 1003.6 hPa SW 8.0 km/h 27.4 km/h 95 % 1.5 mm 0 W/m2
06:45 10.1 °C 9.3 °C 1003.6 hPa SSW 16.1 km/h 27.4 km/h 95 % 2.3 mm 0 W/m2
06:50 10.1 °C 9.3 °C 1003.3 hPa SW 17.7 km/h 32.2 km/h 95 % 2.5 mm 0 W/m2
06:55 10.1 °C 9.4 °C 1003.3 hPa South 11.3 km/h 32.2 km/h 96 % 3.0 mm 0 W/m2
07:00 10.0 °C 9.4 °C 1003.3 hPa SW 16.1 km/h 29.0 km/h 96 % 3.0 mm 0 W/m2
07:05 10.0 °C 9.4 °C 1002.9 hPa SSW 35.4 km/h 35.4 km/h 96 % 3.0 mm 0 W/m2
07:10 9.9 °C 9.3 °C 1002.9 hPa SW 27.4 km/h 35.4 km/h 96 % 3.0 mm 0 W/m2
07:15 10.0 °C 9.4 °C 1002.6 hPa WSW 9.7 km/h 35.4 km/h 96 % 3.0 mm 0 W/m2
07:20 10.0 °C 9.4 °C 1002.6 hPa South 16.1 km/h 29.0 km/h 96 % 3.0 mm 0 W/m2
07:25 10.1 °C 9.6 °C 1002.3 hPa SSE 14.5 km/h 32.2 km/h 97 % 2.8 mm 0 W/m2
07:30 10.1 °C 9.6 °C 1002.3 hPa SW 9.7 km/h 32.2 km/h 97 % 2.5 mm 0 W/m2
07:35 10.1 °C 9.6 °C 1002.3 hPa SSW 11.3 km/h 35.4 km/h 97 % 2.3 mm 0 W/m2
07:40 10.1 °C 9.6 °C 1002.3 hPa SW 16.1 km/h 38.6 km/h 97 % 2.3 mm 0 W/m2
07:45 10.1 °C 9.6 °C 1001.9 hPa West 8.0 km/h 38.6 km/h 97 % 2.0 mm 0 W/m2
07:50 10.1 °C 9.7 °C 1001.9 hPa SW 22.5 km/h 33.8 km/h 97 % 1.8 mm 0 W/m2
07:55 10.1 °C 9.7 °C 1001.6 hPa SW 29.0 km/h 38.6 km/h 97 % 1.8 mm 0 W/m2
08:00 10.1 °C 9.7 °C 1001.6 hPa SSW 11.3 km/h 38.6 km/h 97 % 2.0 mm 0 W/m2
08:05 10.1 °C 9.7 °C 1001.2 hPa SW 24.1 km/h 37.0 km/h 97 % 2.3 mm 0 W/m2
08:10 10.1 °C 9.7 °C 1001.2 hPa SSW 22.5 km/h 35.4 km/h 97 % 2.0 mm 0 W/m2
08:15 10.1 °C 9.7 °C 1001.2 hPa SSW 14.5 km/h 40.2 km/h 97 % 2.0 mm 0 W/m2
08:20 10.1 °C 9.7 °C 1001.2 hPa SW 24.1 km/h 40.2 km/h 97 % 1.8 mm 0 W/m2
08:25 10.1 °C 9.7 °C 1001.2 hPa SSW 20.9 km/h 37.0 km/h 97 % 1.5 mm 5 W/m2
08:30 10.1 °C 9.7 °C 1000.9 hPa SW 9.7 km/h 41.8 km/h 97 % 1.8 mm 5 W/m2
08:35 10.1 °C 9.7 °C 1000.9 hPa SSW 20.9 km/h 41.8 km/h 97 % 2.0 mm 5 W/m2
08:40 10.1 °C 9.7 °C 1000.9 hPa SSW 22.5 km/h 48.3 km/h 97 % 1.8 mm 9 W/m2
08:45 10.2 °C 9.7 °C 1000.9 hPa WSW 19.3 km/h 48.3 km/h 97 % 1.5 mm 5 W/m2
08:50 10.1 °C 9.7 °C 1000.9 hPa South 17.7 km/h 46.7 km/h 97 % 1.5 mm 9 W/m2
08:55 10.1 °C 9.6 °C 1000.9 hPa West 19.3 km/h 41.8 km/h 97 % 1.3 mm 9 W/m2
09:00 10.1 °C 9.6 °C 1000.6 hPa West 22.5 km/h 41.8 km/h 97 % 1.0 mm 7 W/m2
09:05 10.1 °C 9.6 °C 1000.6 hPa West 12.9 km/h 35.4 km/h 97 % 0.8 mm 16 W/m2
09:10 10.1 °C 9.6 °C 1000.6 hPa SW 11.3 km/h 37.0 km/h 97 % 0.8 mm 37 W/m2
09:15 10.1 °C 9.6 °C 1000.6 hPa WSW 9.7 km/h 37.0 km/h 97 % 0.8 mm 19 W/m2
09:20 10.1 °C 9.6 °C 1000.6 hPa SW 16.1 km/h 37.0 km/h 97 % 1.0 mm 76 W/m2
09:25 10.1 °C 9.6 °C 1000.2 hPa WSW 8.0 km/h 32.2 km/h 97 % 0.8 mm 65 W/m2
09:30 10.1 °C 9.7 °C 1000.2 hPa SW 19.3 km/h 33.8 km/h 97 % 0.8 mm 53 W/m2
09:35 10.2 °C 9.7 °C 1000.2 hPa West 16.1 km/h 40.2 km/h 97 % 0.5 mm 40 W/m2
09:40 10.2 °C 9.7 °C 1000.2 hPa SSW 11.3 km/h 40.2 km/h 97 % 0.5 mm 28 W/m2
09:45 10.1 °C 9.7 °C 1000.2 hPa West 11.3 km/h 38.6 km/h 97 % 0.5 mm 26 W/m2
09:50 10.1 °C 9.7 °C 1000.2 hPa WSW 17.7 km/h 49.9 km/h 97 % 1.8 mm 42 W/m2
09:55 10.2 °C 9.7 °C 999.9 hPa West 19.3 km/h 49.9 km/h 97 % 3.8 mm 54 W/m2
10:00 9.9 °C 9.5 °C 999.9 hPa West 16.1 km/h 38.6 km/h 97 % 4.3 mm 35 W/m2
10:05 9.6 °C 8.9 °C 1000.2 hPa WSW 20.9 km/h 41.8 km/h 96 % 5.8 mm 23 W/m2
10:10 9.3 °C 8.8 °C 999.9 hPa WSW 11.3 km/h 41.8 km/h 97 % 7.1 mm 28 W/m2
10:15 9.4 °C 8.9 °C 999.9 hPa SW 16.1 km/h 40.2 km/h 97 % 7.9 mm 26 W/m2
10:20 9.5 °C 9.0 °C 999.9 hPa WSW 6.4 km/h 37.0 km/h 97 % 7.6 mm 33 W/m2
10:25 9.5 °C 9.0 °C 999.5 hPa SW 6.4 km/h 29.0 km/h 97 % 7.9 mm 30 W/m2
10:30 9.8 °C 9.3 °C 999.5 hPa WSW 17.7 km/h 32.2 km/h 97 % 7.9 mm 113 W/m2
10:35 10.1 °C 9.6 °C 999.5 hPa SW 12.9 km/h 32.2 km/h 97 % 7.9 mm 151 W/m2
10:40 10.2 °C 9.7 °C 999.5 hPa WSW 4.8 km/h 38.6 km/h 97 % 7.9 mm 105 W/m2
10:45 9.9 °C 9.3 °C 999.5 hPa West 11.3 km/h 38.6 km/h 96 % 7.6 mm 102 W/m2
10:50 9.6 °C 9.0 °C 999.5 hPa WSW 16.1 km/h 35.4 km/h 96 % 6.3 mm 156 W/m2
10:55 9.6 °C 8.9 °C 999.5 hPa SSW 16.1 km/h 35.4 km/h 96 % 4.3 mm 178 W/m2
11:00 9.8 °C 9.2 °C 999.5 hPa WSW 4.8 km/h 38.6 km/h 96 % 4.1 mm 264 W/m2
11:05 10.1 °C 9.4 °C 999.5 hPa SW 11.3 km/h 38.6 km/h 96 % 2.0 mm 144 W/m2
11:10 10.0 °C 9.2 °C 999.5 hPa WSW 20.9 km/h 43.4 km/h 95 % 0.8 mm 104 W/m2
11:15 9.9 °C 9.0 °C 999.5 hPa SSW 14.5 km/h 43.4 km/h 94 % 0.3 mm 102 W/m2
11:20 9.9 °C 9.0 °C 999.2 hPa West 24.1 km/h 37.0 km/h 94 % 0.3 mm 134 W/m2
11:25 10.0 °C 9.1 °C 999.2 hPa WSW 20.9 km/h 33.8 km/h 94 % 0.0 mm 135 W/m2
11:30 10.6 °C 9.7 °C 999.2 hPa WSW 9.7 km/h 32.2 km/h 94 % 0.0 mm 471 W/m2
11:40 11.5 °C 10.1 °C 999.2 hPa WSW 20.9 km/h 32.2 km/h 91 % 0.0 mm 717 W/m2
11:45 11.7 °C 10.0 °C 999.2 hPa WSW 11.3 km/h 37.0 km/h 89 % 0.0 mm 418 W/m2
11:50 11.4 °C 9.3 °C 998.9 hPa West 9.7 km/h 38.6 km/h 87 % 0.0 mm 163 W/m2
11:55 10.8 °C 8.4 °C 999.5 hPa West 45.1 km/h 45.1 km/h 85 % 0.0 mm 176 W/m2
12:00 9.7 °C 7.8 °C 999.5 hPa NW 17.7 km/h 48.3 km/h 88 % 0.0 mm 23 W/m2
12:05 9.2 °C 7.8 °C 999.2 hPa West 20.9 km/h 48.3 km/h 91 % 0.5 mm 39 W/m2
12:10 8.9 °C 7.6 °C 999.2 hPa NW 16.1 km/h 38.6 km/h 91 % 0.5 mm 118 W/m2
12:15 9.1 °C 8.0 °C 999.2 hPa West 11.3 km/h 33.8 km/h 93 % 0.5 mm 174 W/m2
12:20 9.3 °C 8.4 °C 998.9 hPa WNW 16.1 km/h 29.0 km/h 94 % 0.5 mm 158 W/m2
12:25 9.3 °C 8.4 °C 999.2 hPa West 14.5 km/h 33.8 km/h 94 % 0.5 mm 90 W/m2
12:30 9.2 °C 8.3 °C 999.2 hPa WSW 16.1 km/h 33.8 km/h 94 % 0.5 mm 46 W/m2
12:40 8.3 °C 6.9 °C 999.5 hPa NW 17.7 km/h 59.5 km/h 91 % 1.5 mm 69 W/m2
12:45 7.9 °C 6.7 °C 999.5 hPa West 16.1 km/h 59.5 km/h 92 % 1.5 mm 81 W/m2
12:50 7.9 °C 6.9 °C 999.5 hPa West 17.7 km/h 46.7 km/h 93 % 1.5 mm 93 W/m2
12:55 8.1 °C 7.0 °C 999.2 hPa West 35.4 km/h 46.7 km/h 93 % 2.0 mm 83 W/m2
13:00 8.2 °C 7.2 °C 999.2 hPa WNW 4.8 km/h 43.4 km/h 93 % 2.0 mm 227 W/m2
13:05 8.4 °C 7.4 °C 998.9 hPa West 25.7 km/h 40.2 km/h 93 % 1.5 mm 153 W/m2
13:10 8.6 °C 7.5 °C 998.9 hPa West 17.7 km/h 35.4 km/h 93 % 1.5 mm 97 W/m2
13:15 8.7 °C 7.4 °C 998.9 hPa West 24.1 km/h 33.8 km/h 92 % 1.5 mm 216 W/m2
13:20 8.9 °C 7.7 °C 998.9 hPa WNW 14.5 km/h 33.8 km/h 92 % 1.5 mm 237 W/m2
13:25 9.0 °C 7.6 °C 998.9 hPa West 20.9 km/h 32.2 km/h 91 % 1.5 mm 202 W/m2
13:30 9.0 °C 7.6 °C 998.5 hPa WSW 12.9 km/h 32.2 km/h 91 % 1.5 mm 100 W/m2
13:35 8.9 °C 7.6 °C 998.5 hPa West 14.5 km/h 30.6 km/h 91 % 0.8 mm 53 W/m2
13:40 8.8 °C 7.4 °C 998.9 hPa WNW 22.5 km/h 35.4 km/h 91 % 1.0 mm 35 W/m2
13:45 8.2 °C 6.8 °C 999.2 hPa WNW 11.3 km/h 45.1 km/h 91 % 1.5 mm 114 W/m2
13:50 7.4 °C 6.1 °C 999.2 hPa West 30.6 km/h 45.1 km/h 91 % 1.5 mm 62 W/m2
13:55 7.1 °C 5.9 °C 999.2 hPa WNW 12.9 km/h 43.4 km/h 92 % 1.5 mm 30 W/m2
14:00 7.0 °C 5.9 °C 998.9 hPa SW 19.3 km/h 43.4 km/h 93 % 2.0 mm 44 W/m2
14:05 7.0 °C 6.1 °C 998.9 hPa West 19.3 km/h 41.8 km/h 94 % 2.3 mm 46 W/m2
14:10 7.1 °C 6.2 °C 998.5 hPa West 14.5 km/h 38.6 km/h 94 % 2.8 mm 83 W/m2
14:15 7.4 °C 6.6 °C 998.2 hPa WNW 8.0 km/h 33.8 km/h 95 % 2.8 mm 155 W/m2
14:20 7.7 °C 6.9 °C 997.9 hPa West 11.3 km/h 32.2 km/h 95 % 2.8 mm 186 W/m2
14:25 8.2 °C 7.6 °C 997.9 hPa West 6.4 km/h 29.0 km/h 96 % 2.8 mm 227 W/m2
14:30 8.3 °C 7.4 °C 997.9 hPa WSW 25.7 km/h 29.0 km/h 94 % 2.8 mm 186 W/m2
14:35 8.5 °C 7.6 °C 997.9 hPa WNW 11.3 km/h 30.6 km/h 94 % 2.8 mm 267 W/m2
14:40 8.7 °C 7.6 °C 997.9 hPa West 9.7 km/h 30.6 km/h 93 % 2.3 mm 153 W/m2
14:45 8.8 °C 7.7 °C 997.9 hPa WSW 16.1 km/h 29.0 km/h 93 % 1.8 mm 155 W/m2
14:50 8.8 °C 7.6 °C 997.9 hPa West 30.6 km/h 40.2 km/h 92 % 1.5 mm 185 W/m2
14:55 9.1 °C 7.7 °C 997.9 hPa West 20.9 km/h 40.2 km/h 91 % 1.3 mm 211 W/m2
15:00 9.3 °C 7.7 °C 997.9 hPa SW 20.9 km/h 38.6 km/h 90 % 0.8 mm 232 W/m2
15:05 9.3 °C 7.6 °C 997.9 hPa SW 8.0 km/h 38.6 km/h 89 % 0.3 mm 207 W/m2
15:10 9.4 °C 7.8 °C 997.9 hPa WNW 12.9 km/h 38.6 km/h 90 % 0.0 mm 167 W/m2
15:15 9.4 °C 7.7 °C 997.9 hPa WSW 14.5 km/h 33.8 km/h 89 % 0.0 mm 232 W/m2
15:20 9.6 °C 7.8 °C 997.5 hPa West 11.3 km/h 33.8 km/h 89 % 0.0 mm 181 W/m2
15:25 9.5 °C 7.6 °C 997.9 hPa South 6.4 km/h 29.0 km/h 88 % 0.0 mm 76 W/m2
15:30 9.2 °C 7.1 °C 997.9 hPa WSW 20.9 km/h 37.0 km/h 87 % 0.0 mm 211 W/m2
15:40 8.9 °C 7.2 °C 997.5 hPa WSW 8.0 km/h 40.2 km/h 89 % 0.0 mm 32 W/m2
15:45 8.7 °C 7.1 °C 997.9 hPa West 16.1 km/h 29.0 km/h 90 % 0.0 mm 37 W/m2
15:50 8.3 °C 6.8 °C 997.9 hPa West 30.6 km/h 30.6 km/h 90 % 0.3 mm 69 W/m2
15:55 8.1 °C 6.5 °C 997.9 hPa WNW 32.2 km/h 37.0 km/h 90 % 0.3 mm 63 W/m2
16:00 7.9 °C 6.2 °C 997.9 hPa WNW 24.1 km/h 37.0 km/h 89 % 0.5 mm 58 W/m2
16:05 8.0 °C 6.5 °C 997.9 hPa WSW 30.6 km/h 35.4 km/h 90 % 0.5 mm 109 W/m2
16:10 8.2 °C 6.6 °C 997.5 hPa West 19.3 km/h 38.6 km/h 90 % 0.5 mm 81 W/m2
16:15 8.2 °C 6.7 °C 998.2 hPa WNW 20.9 km/h 38.6 km/h 90 % 0.5 mm 65 W/m2
16:20 7.8 °C 6.1 °C 998.2 hPa NW 20.9 km/h 41.8 km/h 89 % 0.5 mm 60 W/m2
16:25 7.3 °C 6.0 °C 998.2 hPa WSW 20.9 km/h 41.8 km/h 91 % 0.5 mm 62 W/m2
16:30 7.3 °C 6.1 °C 998.2 hPa WNW 20.9 km/h 41.8 km/h 92 % 0.5 mm 72 W/m2
16:35 7.5 °C 6.3 °C 998.2 hPa WNW 12.9 km/h 41.8 km/h 92 % 0.5 mm 77 W/m2
16:40 7.7 °C 6.3 °C 997.9 hPa West 16.1 km/h 40.2 km/h 91 % 0.5 mm 160 W/m2
16:45 7.9 °C 6.4 °C 997.9 hPa WNW 17.7 km/h 40.2 km/h 90 % 0.5 mm 118 W/m2
16:50 8.0 °C 5.6 °C 997.9 hPa SSW 9.7 km/h 49.9 km/h 85 % 0.5 mm 88 W/m2
16:55 8.0 °C 5.6 °C 997.5 hPa WNW 30.6 km/h 49.9 km/h 85 % 0.5 mm 70 W/m2
17:00 7.9 °C 5.4 °C 997.5 hPa West 20.9 km/h 43.4 km/h 84 % 0.3 mm 79 W/m2
17:10 8.1 °C 5.7 °C 997.5 hPa West 17.7 km/h 38.6 km/h 85 % 0.3 mm 54 W/m2
17:15 8.2 °C 5.8 °C 997.5 hPa NW 17.7 km/h 37.0 km/h 85 % 0.3 mm 49 W/m2
17:20 8.3 °C 6.1 °C 997.5 hPa WSW 29.0 km/h 35.4 km/h 86 % 0.3 mm 44 W/m2
17:25 8.3 °C 5.9 °C 997.9 hPa NW 11.3 km/h 35.4 km/h 85 % 0.3 mm 47 W/m2
17:30 8.3 °C 5.9 °C 997.5 hPa West 12.9 km/h 35.4 km/h 85 % 0.3 mm 40 W/m2
17:35 8.3 °C 6.1 °C 997.9 hPa WSW 8.0 km/h 35.4 km/h 86 % 0.0 mm 42 W/m2
17:40 8.3 °C 6.0 °C 997.9 hPa West 32.2 km/h 37.0 km/h 85 % 0.0 mm 28 W/m2
17:45 8.4 °C 5.9 °C 997.5 hPa WNW 17.7 km/h 40.2 km/h 84 % 0.0 mm 32 W/m2
17:50 8.5 °C 5.9 °C 997.5 hPa WNW 16.1 km/h 46.7 km/h 84 % 0.3 mm 11 W/m2
17:55 8.4 °C 5.0 °C 997.5 hPa WNW 54.7 km/h 54.7 km/h 79 % 0.3 mm 14 W/m2
18:00 8.4 °C 5.0 °C 997.5 hPa NNW 24.1 km/h 54.7 km/h 79 % 0.3 mm 11 W/m2
18:10 8.6 °C 4.8 °C 997.5 hPa WNW 24.1 km/h 46.7 km/h 77 % 0.3 mm 35 W/m2
18:15 8.0 °C 4.6 °C 997.9 hPa WNW 14.5 km/h 46.7 km/h 79 % 0.3 mm 42 W/m2
18:20 7.9 °C 4.6 °C 997.9 hPa West 22.5 km/h 46.7 km/h 80 % 0.3 mm 54 W/m2
18:25 7.8 °C 4.8 °C 997.9 hPa WNW 17.7 km/h 40.2 km/h 81 % 0.3 mm 47 W/m2
18:30 7.8 °C 4.8 °C 997.9 hPa WNW 20.9 km/h 43.4 km/h 81 % 0.3 mm 21 W/m2
18:35 7.8 °C 4.9 °C 997.9 hPa WSW 8.0 km/h 45.1 km/h 82 % 0.3 mm 14 W/m2
18:40 7.9 °C 5.2 °C 997.9 hPa WNW 9.7 km/h 45.1 km/h 83 % 0.3 mm 7 W/m2
18:45 7.8 °C 5.2 °C 997.9 hPa West 16.1 km/h 32.2 km/h 84 % 0.3 mm 5 W/m2
18:50 7.7 °C 5.4 °C 997.5 hPa West 11.3 km/h 27.4 km/h 85 % 0.0 mm 0 W/m2
18:55 7.8 °C 5.5 °C 997.9 hPa WNW 14.5 km/h 30.6 km/h 85 % 0.0 mm 0 W/m2
19:00 8.0 °C 5.1 °C 997.9 hPa WNW 33.8 km/h 37.0 km/h 82 % 0.0 mm 0 W/m2
19:05 8.3 °C 5.2 °C 997.9 hPa West 20.9 km/h 37.0 km/h 81 % 0.0 mm 0 W/m2
19:10 8.3 °C 5.3 °C 997.9 hPa WNW 19.3 km/h 43.4 km/h 81 % 0.0 mm 0 W/m2
19:15 8.4 °C 5.1 °C 997.9 hPa West 12.9 km/h 43.4 km/h 80 % 0.0 mm 0 W/m2
19:20 8.4 °C 5.3 °C 997.9 hPa WSW 11.3 km/h 37.0 km/h 81 % 0.0 mm 0 W/m2
19:25 8.4 °C 5.2 °C 997.9 hPa West 17.7 km/h 33.8 km/h 80 % 0.0 mm 0 W/m2
19:30 8.4 °C 5.2 °C 997.9 hPa West 25.7 km/h 49.9 km/h 80 % 0.0 mm 0 W/m2
19:40 8.6 °C 4.8 °C 998.2 hPa West 30.6 km/h 51.5 km/h 77 % 0.0 mm 0 W/m2
19:45 8.7 °C 4.9 °C 997.9 hPa WSW 16.1 km/h 51.5 km/h 77 % 0.0 mm 0 W/m2
19:50 8.7 °C 4.9 °C 997.9 hPa WNW 12.9 km/h 37.0 km/h 77 % 0.0 mm 0 W/m2
19:55 8.7 °C 5.0 °C 997.9 hPa West 30.6 km/h 35.4 km/h 78 % 0.0 mm 0 W/m2
20:00 8.7 °C 5.2 °C 997.9 hPa West 22.5 km/h 38.6 km/h 79 % 0.0 mm 0 W/m2
20:05 8.5 °C 5.4 °C 997.9 hPa WNW 29.0 km/h 41.8 km/h 81 % 0.0 mm 0 W/m2
20:10 8.6 °C 4.8 °C 997.9 hPa WNW 41.8 km/h 43.4 km/h 77 % 0.0 mm 0 W/m2
20:15 8.7 °C 4.5 °C 997.9 hPa NW 17.7 km/h 51.5 km/h 75 % 0.0 mm 0 W/m2
20:20 8.6 °C 4.4 °C 998.2 hPa West 16.1 km/h 51.5 km/h 75 % 0.0 mm 0 W/m2
20:25 8.6 °C 4.8 °C 998.2 hPa West 22.5 km/h 45.1 km/h 77 % 0.0 mm 0 W/m2
20:30 8.7 °C 5.0 °C 998.2 hPa West 19.3 km/h 45.1 km/h 78 % 0.0 mm 0 W/m2
20:35 8.7 °C 5.0 °C 998.2 hPa NNW 14.5 km/h 37.0 km/h 78 % 0.0 mm 0 W/m2
20:40 8.6 °C 4.8 °C 998.2 hPa West 14.5 km/h 37.0 km/h 77 % 0.0 mm 0 W/m2
20:45 8.6 °C 4.8 °C 998.2 hPa WNW 17.7 km/h 40.2 km/h 77 % 0.0 mm 0 W/m2
20:50 8.3 °C 4.3 °C 998.2 hPa WNW 22.5 km/h 40.2 km/h 76 % 0.0 mm 0 W/m2
20:55 8.2 °C 4.4 °C 998.2 hPa West 19.3 km/h 35.4 km/h 77 % 0.0 mm 0 W/m2
21:00 8.2 °C 4.4 °C 998.2 hPa West 14.5 km/h 38.6 km/h 77 % 0.0 mm 0 W/m2
21:05 8.2 °C 4.6 °C 998.2 hPa WNW 9.7 km/h 38.6 km/h 78 % 0.0 mm 0 W/m2
21:10 7.9 °C 4.3 °C 998.2 hPa NW 20.9 km/h 30.6 km/h 78 % 0.0 mm 0 W/m2
21:15 7.8 °C 4.4 °C 998.5 hPa WNW 25.7 km/h 29.0 km/h 79 % 0.0 mm 0 W/m2
21:20 7.8 °C 4.2 °C 998.5 hPa NNW 22.5 km/h 37.0 km/h 78 % 0.0 mm 0 W/m2
21:25 7.6 °C 3.8 °C 998.5 hPa WNW 24.1 km/h 43.4 km/h 77 % 0.0 mm 0 W/m2
21:30 7.1 °C 3.7 °C 998.9 hPa NW 20.9 km/h 43.4 km/h 79 % 0.0 mm 0 W/m2
21:35 6.7 °C 3.9 °C 999.2 hPa WNW 25.7 km/h 41.8 km/h 82 % 0.0 mm 0 W/m2
21:40 6.3 °C 4.1 °C 999.2 hPa NW 22.5 km/h 41.8 km/h 86 % 0.5 mm 0 W/m2
21:45 6.0 °C 4.2 °C 999.2 hPa WNW 17.7 km/h 41.8 km/h 88 % 0.5 mm 0 W/m2
21:50 5.9 °C 4.1 °C 999.2 hPa West 4.8 km/h 40.2 km/h 88 % 0.5 mm 0 W/m2
21:55 5.7 °C 4.0 °C 999.2 hPa West 16.1 km/h 37.0 km/h 89 % 0.5 mm 0 W/m2
22:00 5.8 °C 4.3 °C 999.2 hPa NW 22.5 km/h 30.6 km/h 90 % 0.5 mm 0 W/m2
22:05 6.0 °C 4.5 °C 999.2 hPa NW 12.9 km/h 32.2 km/h 90 % 0.5 mm 0 W/m2
22:10 6.1 °C 4.5 °C 999.5 hPa WNW 19.3 km/h 40.2 km/h 90 % 0.8 mm 0 W/m2
22:15 5.9 °C 4.4 °C 999.2 hPa NW 4.8 km/h 40.2 km/h 90 % 0.8 mm 0 W/m2
22:20 5.8 °C 4.1 °C 998.9 hPa NW 19.3 km/h 41.8 km/h 89 % 1.0 mm 0 W/m2
22:25 5.9 °C 4.1 °C 998.9 hPa WNW 16.1 km/h 45.1 km/h 88 % 1.0 mm 0 W/m2
22:30 6.1 °C 4.1 °C 998.9 hPa West 11.3 km/h 45.1 km/h 87 % 1.0 mm 0 W/m2
22:35 6.1 °C 4.1 °C 998.5 hPa West 20.9 km/h 27.4 km/h 87 % 1.0 mm 0 W/m2
22:40 6.2 °C 4.0 °C 998.9 hPa West 9.7 km/h 30.6 km/h 86 % 0.5 mm 0 W/m2
22:45 6.3 °C 4.2 °C 998.5 hPa WSW 12.9 km/h 30.6 km/h 86 % 0.5 mm 0 W/m2
22:50 6.5 °C 4.3 °C 998.5 hPa West 12.9 km/h 30.6 km/h 86 % 0.5 mm 0 W/m2
22:55 6.6 °C 4.4 °C 998.5 hPa WNW 9.7 km/h 27.4 km/h 86 % 0.5 mm 0 W/m2
23:00 6.7 °C 4.5 °C 998.9 hPa West 20.9 km/h 27.4 km/h 86 % 0.5 mm 0 W/m2
23:05 6.8 °C 4.6 °C 998.5 hPa West 12.9 km/h 27.4 km/h 86 % 0.5 mm 0 W/m2
23:10 6.8 °C 4.8 °C 998.5 hPa WNW 8.0 km/h 27.4 km/h 87 % 0.3 mm 0 W/m2
23:15 7.1 °C 5.2 °C 998.5 hPa West 29.0 km/h 30.6 km/h 88 % 0.3 mm 0 W/m2
23:20 7.4 °C 5.0 °C 998.5 hPa West 25.7 km/h 35.4 km/h 85 % 0.0 mm 0 W/m2
23:25 7.7 °C 4.8 °C 998.5 hPa WNW 25.7 km/h 46.7 km/h 82 % 0.0 mm 0 W/m2
23:30 7.7 °C 4.8 °C 998.9 hPa WNW 29.0 km/h 46.7 km/h 82 % 0.0 mm 0 W/m2
23:40 6.6 °C 3.5 °C 998.9 hPa West 9.7 km/h 51.5 km/h 81 % 0.3 mm 0 W/m2
23:45 6.6 °C 3.6 °C 998.9 hPa WNW 16.1 km/h 33.8 km/h 81 % 0.3 mm 0 W/m2
23:50 6.7 °C 3.8 °C 998.2 hPa NW 11.3 km/h 38.6 km/h 82 % 0.3 mm 0 W/m2
23:55 6.7 °C 3.2 °C 997.9 hPa WNW 19.3 km/h 38.6 km/h 78 % 0.3 mm 0 W/m2
Avec l'autorisation de Weather Underground - 1.75 mb